This is the latest recevied weather packets stored in our database for station/object KO4ZGL-13. If no packets are shown the sender has not sent any weather packets the latest 10 day(s).
| Time | Temp. | Humidity | Pressure | Rain* | Wind** | Luminosity | Snow |
|---|---|---|---|---|---|---|---|
| 1787775225 | 24.44° C | 99% | 1016.5 hPa | 0 mm | - | 127 W/m² | - |
| 1787774920 | 24.44° C | 99% | 1016.6 hPa | 0 mm | - | 130 W/m² | - |
| 1787774619 | 24.44° C | 99% | 1016.8 hPa | 0 mm | - | 134 W/m² | - |
| 1787774319 | 24.44° C | 99% | 1016.9 hPa | 0 mm | - | 134 W/m² | - |
| 1787774018 | 24.44° C | 99% | 1016.7 hPa | 0 mm | - | 132 W/m² | - |
| 1787773711 | 24.44° C | 99% | 1016.9 hPa | 0 mm | - | 142 W/m² | - |
| 1787773407 | 24.44° C | 99% | 1016.8 hPa | 0 mm | - | 147 W/m² | - |
| 1787773101 | 24.44° C | 99% | 1016.9 hPa | 0 mm | - | 165 W/m² | - |
| 1787772798 | 23.89° C | 99% | 1017 hPa | 0 mm | - | 173 W/m² | - |
| 1787772496 | 24.44° C | 99% | 1016.9 hPa | 0 mm | - | 173 W/m² | - |
| 1787772195 | 23.89° C | 99% | 1017.1 hPa | 0 mm | - | 194 W/m² | - |
| 1787771894 | 23.89° C | 99% | 1016.8 hPa | 0 mm | - | 182 W/m² | - |
| 1787771589 | 23.89° C | 99% | 1017.2 hPa | 0 mm | - | 173 W/m² | - |
| 1787771283 | 23.89° C | 99% | 1017 hPa | 0 mm | - | 207 W/m² | - |
| 1787770979 | 23.33° C | 99% | 1017.5 hPa | 0 mm | - | 235 W/m² | - |
| 1787770677 | 23.33° C | 99% | 1017.4 hPa | 1.78 mm | - | 232 W/m² | - |
| 1787770372 | 23.33° C | 99% | 1017.1 hPa | 1.78 mm | - | 206 W/m² | - |
| 1787770071 | 23.33° C | 99% | 1017.4 hPa | 1.27 mm | - | 169 W/m² | - |
| 1787769766 | 22.78° C | 99% | 1017.3 hPa | 1.27 mm | - | 113 W/m² | - |
| 1787769464 | 22.78° C | 99% | 1017.4 hPa | 0 mm | - | 80 W/m² | - |
| 1787769159 | 22.78° C | 99% | 1017.5 hPa | 0 mm | - | 60 W/m² | - |
| 1787768853 | 22.78° C | 99% | 1017.3 hPa | 0 mm | - | 50 W/m² | - |
| 1787768550 | 22.78° C | 99% | 1017.5 hPa | 0 mm | - | 44 W/m² | - |
| 1787768245 | 22.78° C | 99% | 1017.6 hPa | 0 mm | - | 41 W/m² | - |
| 1787767941 | 22.78° C | 99% | 1017.6 hPa | 0 mm | - | 39 W/m² | - |
* Rain latest hour (hover to see other rain measurements)
** Current wind speed in m/s (hover to see current wind gust speed)